Location: A�t �Alizem
(31.2076°N, 8.7872°W)
Time: 05:34:44
(UTC+00:00)

deb Explorer IX - Pass Details

Date: 27 June 2021
Orbit: 541 x 1234 km, 38.9° (Epoch: 01 August)

Event Time Altitude Azimuth Distance (km) Brightness Sun altitude
Rises 22:21:53 0° 257° (WSW) 2,689 ? -26.5°
Reaches altitude 10° 22:24:05 10° 262° (W) 1,822 ? -26.7°
Enters shadow 22:27:32 50° 308° (NW) 743 ? -27.1°
